{"data":{"norad_id":67699,"epoch":"2026-09-19T12:41:16.297440Z","epoch_age_seconds":152802,"freshness":"FRESH","line1":"1 67699U 26025G   26262.52866085 -.00016395  00000+0 -50623-3 0  9994","line2":"2 67699  97.2851  12.3920 0001762 327.3946  32.7187 15.33468033 35729","mean_motion":15.33468033,"eccentricity":0.0001762,"inclination_deg":97.2851,"raan_deg":12.392,"arg_perigee_deg":327.3946,"mean_anomaly_deg":32.7187,"bstar":-0.00050623,"rev_number":3572,"period_min":93.904794166648,"perigee_km":464.2688009611,"apogee_km":466.68048970491,"semimajor_km":6843.611645333,"source":"CELESTRAK","updated_at":"2026-09-20T09:00:43.628273Z"}}